Year,Month,Day,Hour,Minute,Value (Times are PST for temperature in C)
2010,06,12,00,00,11.10
2010,06,12,00,01,11.10
2010,06,12,00,02,11.10
2010,06,12,00,03,11.10
2010,06,12,00,04,11.10
2010,06,12,00,05,11.10
2010,06,12,00,06,11.00
2010,06,12,00,07,10.90
2010,06,12,00,08,10.90
2010,06,12,00,09,10.90
2010,06,12,00,10,10.90
2010,06,12,00,11,10.90
2010,06,12,00,12,10.90
2010,06,12,00,13,10.90
2010,06,12,00,14,10.80
2010,06,12,00,15,10.80
2010,06,12,00,16,10.80
2010,06,12,00,17,10.80
2010,06,12,00,18,10.70
2010,06,12,00,19,10.70
2010,06,12,00,20,10.70
2010,06,12,00,21,10.70
2010,06,12,00,22,10.70
2010,06,12,00,23,10.60
2010,06,12,00,24,10.60
2010,06,12,00,25,10.60
2010,06,12,00,26,10.60
2010,06,12,00,27,10.60
2010,06,12,00,28,10.60
2010,06,12,00,29,10.60
2010,06,12,00,30,10.60
2010,06,12,00,31,10.60
2010,06,12,00,32,10.50
2010,06,12,00,33,10.40
2010,06,12,00,34,10.40
2010,06,12,00,35,10.40
2010,06,12,00,36,10.40
2010,06,12,00,37,10.40
2010,06,12,00,38,10.40
2010,06,12,00,39,10.40
2010,06,12,00,40,10.40
2010,06,12,00,41,10.40
2010,06,12,00,42,10.40
2010,06,12,00,43,10.30
2010,06,12,00,44,10.30
2010,06,12,00,45,10.30
2010,06,12,00,46,10.30
2010,06,12,00,47,10.30
2010,06,12,00,48,10.20
2010,06,12,00,49,10.20
2010,06,12,00,50,10.20
2010,06,12,00,51,10.20
2010,06,12,00,52,10.20
2010,06,12,00,53,10.20
2010,06,12,00,54,10.20
2010,06,12,00,55,10.20
2010,06,12,00,56,10.20
2010,06,12,00,57,10.10
2010,06,12,00,58,10.10
2010,06,12,00,59,10.10
2010,06,12,01,00,10.10
2010,06,12,01,01,10.10
2010,06,12,01,02,10.10
2010,06,12,01,03,10.10
2010,06,12,01,04,10.10
2010,06,12,01,05,10.10
2010,06,12,01,06,10.10
2010,06,12,01,07,10.10
2010,06,12,01,08,10.10
2010,06,12,01,09,10.10
2010,06,12,01,10,10.10
2010,06,12,01,11,10.10
2010,06,12,01,12,10.10
2010,06,12,01,13,10.10
2010,06,12,01,14,10.10
2010,06,12,01,15,10.10
2010,06,12,01,16,10.10
2010,06,12,01,17,10.00
2010,06,12,01,18,9.90
2010,06,12,01,19,9.90
2010,06,12,01,20,9.90
2010,06,12,01,21,9.90
2010,06,12,01,22,9.90
2010,06,12,01,23,9.90
2010,06,12,01,24,9.90
2010,06,12,01,25,9.90
2010,06,12,01,26,9.90
2010,06,12,01,27,9.90
2010,06,12,01,28,9.90
2010,06,12,01,29,9.90
2010,06,12,01,30,9.90
2010,06,12,01,31,9.90
2010,06,12,01,32,9.90
2010,06,12,01,33,9.90
2010,06,12,01,34,9.90
2010,06,12,01,35,9.90
2010,06,12,01,36,9.90
2010,06,12,01,37,9.80
2010,06,12,01,38,9.80
2010,06,12,01,39,9.80
2010,06,12,01,40,9.80
2010,06,12,01,41,9.80
2010,06,12,01,42,9.80
2010,06,12,01,43,9.80
2010,06,12,01,44,9.80
2010,06,12,01,45,9.80
2010,06,12,01,46,9.80
2010,06,12,01,47,9.80
2010,06,12,01,48,9.80
2010,06,12,01,49,9.80
2010,06,12,01,50,9.70
2010,06,12,01,51,9.70
2010,06,12,01,52,9.70
2010,06,12,01,53,9.70
2010,06,12,01,54,9.70
2010,06,12,01,55,9.70
2010,06,12,01,56,9.70
2010,06,12,01,57,9.70
2010,06,12,01,58,9.70
2010,06,12,01,59,9.70
2010,06,12,02,00,9.70
2010,06,12,02,01,9.70
2010,06,12,02,02,9.70
2010,06,12,02,03,9.70
2010,06,12,02,04,9.60
2010,06,12,02,05,9.60
2010,06,12,02,06,9.60
2010,06,12,02,07,9.60
2010,06,12,02,08,9.60
2010,06,12,02,09,9.50
2010,06,12,02,10,9.50
2010,06,12,02,11,9.50
2010,06,12,02,12,9.50
2010,06,12,02,13,9.50
2010,06,12,02,14,9.40
2010,06,12,02,15,9.40
2010,06,12,02,16,9.40
2010,06,12,02,17,9.40
2010,06,12,02,18,9.30
2010,06,12,02,19,9.30
2010,06,12,02,20,9.30
2010,06,12,02,21,9.30
2010,06,12,02,22,9.30
2010,06,12,02,23,9.30
2010,06,12,02,24,9.20
2010,06,12,02,25,9.20
2010,06,12,02,26,9.20
2010,06,12,02,27,9.20
2010,06,12,02,28,9.20
2010,06,12,02,29,9.20
2010,06,12,02,30,9.20
2010,06,12,02,31,9.20
2010,06,12,02,32,9.20
2010,06,12,02,33,9.20
2010,06,12,02,34,9.20
2010,06,12,02,35,9.20
2010,06,12,02,36,9.20
2010,06,12,02,37,9.20
2010,06,12,02,38,9.20
2010,06,12,02,39,9.20
2010,06,12,02,40,9.20
2010,06,12,02,41,9.20
2010,06,12,02,42,9.20
2010,06,12,02,43,9.10
2010,06,12,02,44,9.10
2010,06,12,02,45,9.10
2010,06,12,02,46,9.10
2010,06,12,02,47,9.10
2010,06,12,02,48,9.00
2010,06,12,02,49,9.00
2010,06,12,02,50,9.00
2010,06,12,02,51,9.00
2010,06,12,02,52,9.10
2010,06,12,02,53,9.10
2010,06,12,02,54,9.10
2010,06,12,02,55,9.10
2010,06,12,02,56,9.00
2010,06,12,02,57,9.00
2010,06,12,02,58,9.00
2010,06,12,02,59,9.00
2010,06,12,03,00,9.00
2010,06,12,03,01,9.00
2010,06,12,03,02,9.00
2010,06,12,03,03,9.00
2010,06,12,03,04,8.90
2010,06,12,03,05,9.00
2010,06,12,03,06,8.90
2010,06,12,03,07,8.90
2010,06,12,03,08,8.90
2010,06,12,03,09,8.90
2010,06,12,03,10,8.90
2010,06,12,03,11,8.90
2010,06,12,03,12,8.80
2010,06,12,03,13,8.80
2010,06,12,03,14,8.80
2010,06,12,03,15,8.80
2010,06,12,03,16,8.80
2010,06,12,03,17,8.80
2010,06,12,03,18,8.80
2010,06,12,03,19,8.70
2010,06,12,03,20,8.70
2010,06,12,03,21,8.70
2010,06,12,03,22,8.70
2010,06,12,03,23,8.70
2010,06,12,03,24,8.70
2010,06,12,03,25,8.70
2010,06,12,03,26,8.70
2010,06,12,03,27,8.70
2010,06,12,03,28,8.70
2010,06,12,03,29,8.70
2010,06,12,03,30,8.70
2010,06,12,03,31,8.60
2010,06,12,03,32,8.60
2010,06,12,03,33,8.60
2010,06,12,03,34,8.60
2010,06,12,03,35,8.60
2010,06,12,03,36,8.60
2010,06,12,03,37,8.60
2010,06,12,03,38,8.60
2010,06,12,03,39,8.60
2010,06,12,03,40,8.60
2010,06,12,03,41,8.50
2010,06,12,03,42,8.50
2010,06,12,03,43,8.50
2010,06,12,03,44,8.50
2010,06,12,03,45,8.50
2010,06,12,03,46,8.50
2010,06,12,03,47,8.50
2010,06,12,03,48,8.50
2010,06,12,03,49,8.50
2010,06,12,03,50,8.40
2010,06,12,03,51,8.50
2010,06,12,03,52,8.50
2010,06,12,03,53,8.50
2010,06,12,03,54,8.50
2010,06,12,03,55,8.50
2010,06,12,03,56,8.50
2010,06,12,03,57,8.50
2010,06,12,03,58,8.50
2010,06,12,03,59,8.50
2010,06,12,04,00,8.50
2010,06,12,04,01,8.50
2010,06,12,04,02,8.50
2010,06,12,04,03,8.40
2010,06,12,04,04,8.40
2010,06,12,04,05,8.40
2010,06,12,04,06,8.40
2010,06,12,04,07,8.40
2010,06,12,04,08,8.40
2010,06,12,04,09,8.40
2010,06,12,04,10,8.40
2010,06,12,04,11,8.40
2010,06,12,04,12,8.40
2010,06,12,04,13,8.40
2010,06,12,04,14,8.40
2010,06,12,04,15,8.40
2010,06,12,04,16,8.40
2010,06,12,04,17,8.40
2010,06,12,04,18,8.40
2010,06,12,04,19,8.40
2010,06,12,04,20,8.40
2010,06,12,04,21,8.40
2010,06,12,04,22,8.40
2010,06,12,04,23,8.40
2010,06,12,04,24,8.40
2010,06,12,04,25,8.40
2010,06,12,04,26,8.40
2010,06,12,04,27,8.30
2010,06,12,04,28,8.30
2010,06,12,04,29,8.30
2010,06,12,04,30,8.30
2010,06,12,04,31,8.30
2010,06,12,04,32,8.20
2010,06,12,04,33,8.20
2010,06,12,04,34,8.20
2010,06,12,04,35,8.20
2010,06,12,04,36,8.20
2010,06,12,04,37,8.20
2010,06,12,04,38,8.20
2010,06,12,04,39,8.20
2010,06,12,04,40,8.20
2010,06,12,04,41,8.20
2010,06,12,04,42,8.20
2010,06,12,04,43,8.20
2010,06,12,04,44,8.20
2010,06,12,04,45,8.20
2010,06,12,04,46,8.20
2010,06,12,04,47,8.20
2010,06,12,04,48,8.20
2010,06,12,04,49,8.20
2010,06,12,04,50,8.20
2010,06,12,04,51,8.20
2010,06,12,04,52,8.20
2010,06,12,04,53,8.20
2010,06,12,04,54,8.20
2010,06,12,04,55,8.20
2010,06,12,04,56,8.20
2010,06,12,04,57,8.20
2010,06,12,04,58,8.20
2010,06,12,04,59,8.20
2010,06,12,05,00,8.20
2010,06,12,05,01,8.20
2010,06,12,05,02,8.20
2010,06,12,05,03,8.20
2010,06,12,05,04,8.20
2010,06,12,05,05,8.20
2010,06,12,05,06,8.20
2010,06,12,05,07,8.20
2010,06,12,05,08,8.20
2010,06,12,05,09,8.20
2010,06,12,05,10,8.20
2010,06,12,05,11,8.20
2010,06,12,05,12,8.20
2010,06,12,05,13,8.20
2010,06,12,05,14,8.10
2010,06,12,05,15,8.10
2010,06,12,05,16,8.10
2010,06,12,05,17,8.10
2010,06,12,05,18,8.10
2010,06,12,05,19,8.00
2010,06,12,05,20,8.00
2010,06,12,05,21,8.00
2010,06,12,05,22,8.00
2010,06,12,05,23,8.00
2010,06,12,05,24,8.00
2010,06,12,05,25,8.00
2010,06,12,05,26,8.10
2010,06,12,05,27,8.10
2010,06,12,05,28,8.10
2010,06,12,05,29,8.10
2010,06,12,05,30,8.10
2010,06,12,05,31,8.10
2010,06,12,05,32,8.10
2010,06,12,05,33,8.10
2010,06,12,05,34,8.10
2010,06,12,05,35,8.10
2010,06,12,05,36,8.10
2010,06,12,05,37,8.10
2010,06,12,05,38,8.10
2010,06,12,05,39,8.10
2010,06,12,05,40,8.20
2010,06,12,05,41,8.20
2010,06,12,05,42,8.20
2010,06,12,05,43,8.20
2010,06,12,05,44,8.20
2010,06,12,05,45,8.20
2010,06,12,05,46,8.20
2010,06,12,05,47,8.20
2010,06,12,05,48,8.20
2010,06,12,05,49,8.20
2010,06,12,05,50,8.20
2010,06,12,05,51,8.20
2010,06,12,05,52,8.20
2010,06,12,05,53,8.20
2010,06,12,05,54,8.20
2010,06,12,05,55,8.30
2010,06,12,05,56,8.30
2010,06,12,05,57,8.40
2010,06,12,05,58,8.40
2010,06,12,05,59,8.40
2010,06,12,06,00,8.50
2010,06,12,06,01,8.50
2010,06,12,06,02,8.50
2010,06,12,06,03,8.50
2010,06,12,06,04,8.60
2010,06,12,06,05,8.60
2010,06,12,06,06,8.70
2010,06,12,06,07,8.80
2010,06,12,06,08,8.90
2010,06,12,06,09,9.00
2010,06,12,06,10,9.20
2010,06,12,06,11,9.20
2010,06,12,06,12,9.30
2010,06,12,06,13,9.40
2010,06,12,06,14,9.50
2010,06,12,06,15,9.60
2010,06,12,06,16,9.70
2010,06,12,06,17,9.70
2010,06,12,06,18,9.80
2010,06,12,06,19,9.90
2010,06,12,06,20,9.90
2010,06,12,06,21,10.10
2010,06,12,06,22,10.10
2010,06,12,06,23,10.10
2010,06,12,06,24,10.10
2010,06,12,06,25,10.10
2010,06,12,06,26,10.10
2010,06,12,06,27,10.20
2010,06,12,06,28,10.20
2010,06,12,06,29,10.30
2010,06,12,06,30,10.40
2010,06,12,06,31,10.40
2010,06,12,06,32,10.40
2010,06,12,06,33,10.50
2010,06,12,06,34,10.60
2010,06,12,06,35,10.60
2010,06,12,06,36,10.70
2010,06,12,06,37,10.80
2010,06,12,06,38,10.80
2010,06,12,06,39,10.80
2010,06,12,06,40,10.90
2010,06,12,06,41,10.90
2010,06,12,06,42,10.90
2010,06,12,06,43,11.00
2010,06,12,06,44,11.10
2010,06,12,06,45,11.20
2010,06,12,06,46,11.40
2010,06,12,06,47,11.50
2010,06,12,06,48,11.60
2010,06,12,06,49,11.70
2010,06,12,06,50,11.80
2010,06,12,06,51,11.90
2010,06,12,06,52,12.00
2010,06,12,06,53,12.00
2010,06,12,06,54,12.10
2010,06,12,06,55,12.20
2010,06,12,06,56,12.30
2010,06,12,06,57,12.30
2010,06,12,06,58,12.40
2010,06,12,06,59,12.40
2010,06,12,07,00,12.50
2010,06,12,07,01,12.50
2010,06,12,07,02,12.60
2010,06,12,07,03,12.70
2010,06,12,07,04,12.70
2010,06,12,07,05,12.80
2010,06,12,07,06,12.80
2010,06,12,07,07,12.80
2010,06,12,07,08,12.90
2010,06,12,07,09,12.90
2010,06,12,07,10,13.00
2010,06,12,07,11,13.00
2010,06,12,07,12,13.10
2010,06,12,07,13,13.10
2010,06,12,07,14,13.20
2010,06,12,07,15,13.20
2010,06,12,07,16,13.30
2010,06,12,07,17,13.30
2010,06,12,07,18,13.30
2010,06,12,07,19,13.30
2010,06,12,07,20,13.40
2010,06,12,07,21,13.40
2010,06,12,07,22,13.50
2010,06,12,07,23,13.50
2010,06,12,07,24,13.50
2010,06,12,07,25,13.50
2010,06,12,07,26,13.60
2010,06,12,07,27,13.60
2010,06,12,07,28,13.60
2010,06,12,07,29,13.70
2010,06,12,07,30,13.70
2010,06,12,07,31,13.70
2010,06,12,07,32,13.80
2010,06,12,07,33,13.90
2010,06,12,07,34,14.00
2010,06,12,07,35,14.00
2010,06,12,07,36,14.10
2010,06,12,07,37,14.20
2010,06,12,07,38,14.20
2010,06,12,07,39,14.20
2010,06,12,07,40,14.20
2010,06,12,07,41,14.20
2010,06,12,07,42,14.30
2010,06,12,07,43,14.30
2010,06,12,07,44,14.40
2010,06,12,07,45,14.40
2010,06,12,07,46,14.40
2010,06,12,07,47,14.50
2010,06,12,07,48,14.50
2010,06,12,07,49,14.60
2010,06,12,07,50,14.60
2010,06,12,07,51,14.70
2010,06,12,07,52,14.70
2010,06,12,07,53,14.80
2010,06,12,07,54,14.80
2010,06,12,07,55,14.80
2010,06,12,07,56,14.90
2010,06,12,07,57,14.90
2010,06,12,07,58,14.90
2010,06,12,07,59,14.90
2010,06,12,08,00,14.90
2010,06,12,08,01,14.90
2010,06,12,08,02,14.90
2010,06,12,08,03,14.90
2010,06,12,08,04,14.90
2010,06,12,08,05,14.90
2010,06,12,08,06,14.90
2010,06,12,08,07,14.80
2010,06,12,08,08,14.90
2010,06,12,08,09,14.90
2010,06,12,08,10,14.80
2010,06,12,08,11,14.80
2010,06,12,08,12,14.80
2010,06,12,08,13,14.80
2010,06,12,08,14,14.90
2010,06,12,08,15,14.90
2010,06,12,08,16,14.90
2010,06,12,08,17,14.90
2010,06,12,08,18,15.00
2010,06,12,08,19,15.00
2010,06,12,08,20,15.00
2010,06,12,08,21,15.00
2010,06,12,08,22,15.00
2010,06,12,08,23,15.00
2010,06,12,08,24,15.00
2010,06,12,08,25,15.00
2010,06,12,08,26,15.10
2010,06,12,08,27,15.10
2010,06,12,08,28,15.20
2010,06,12,08,29,15.20
2010,06,12,08,30,15.20
2010,06,12,08,31,15.30
2010,06,12,08,32,15.30
2010,06,12,08,33,15.30
2010,06,12,08,34,15.30
2010,06,12,08,35,15.40
2010,06,12,08,36,15.40
2010,06,12,08,37,15.40
2010,06,12,08,38,15.40
2010,06,12,08,39,15.40
2010,06,12,08,40,15.50
2010,06,12,08,41,15.60
2010,06,12,08,42,15.60
2010,06,12,08,43,15.70
2010,06,12,08,44,15.70
2010,06,12,08,45,15.70
2010,06,12,08,46,15.70
2010,06,12,08,47,15.70
2010,06,12,08,48,15.70
2010,06,12,08,49,15.70
2010,06,12,08,50,15.70
2010,06,12,08,51,15.80
2010,06,12,08,52,15.80
2010,06,12,08,53,15.80
2010,06,12,08,54,15.80
2010,06,12,08,55,15.80
2010,06,12,08,56,15.80
2010,06,12,08,57,15.80
2010,06,12,08,58,15.80
2010,06,12,08,59,15.90
2010,06,12,09,00,15.90
2010,06,12,09,01,16.00
2010,06,12,09,02,16.10
2010,06,12,09,03,16.10
2010,06,12,09,04,16.10
2010,06,12,09,05,16.10
2010,06,12,09,06,16.10
2010,06,12,09,07,16.10
2010,06,12,09,08,16.10
2010,06,12,09,09,16.10
2010,06,12,09,10,16.10
2010,06,12,09,11,16.10
2010,06,12,09,12,16.10
2010,06,12,09,13,16.10
2010,06,12,09,14,16.20
2010,06,12,09,15,16.30
2010,06,12,09,16,16.40
2010,06,12,09,17,16.40
2010,06,12,09,18,16.50
2010,06,12,09,19,16.60
2010,06,12,09,20,16.60
2010,06,12,09,21,16.70
2010,06,12,09,22,16.70
2010,06,12,09,23,16.70
2010,06,12,09,24,16.80
2010,06,12,09,25,16.80
2010,06,12,09,26,16.90
2010,06,12,09,27,16.90
2010,06,12,09,28,16.90
2010,06,12,09,29,17.00
2010,06,12,09,30,17.10
2010,06,12,09,31,17.10
2010,06,12,09,32,17.20
2010,06,12,09,33,17.20
2010,06,12,09,34,17.20
2010,06,12,09,35,17.30
2010,06,12,09,36,17.30
2010,06,12,09,37,17.30
2010,06,12,09,38,17.30
2010,06,12,09,39,17.30
2010,06,12,09,40,17.30
2010,06,12,09,41,17.30
2010,06,12,09,42,17.30
2010,06,12,09,43,17.30
2010,06,12,09,44,17.30
2010,06,12,09,45,17.40
2010,06,12,09,46,17.40
2010,06,12,09,47,17.40
2010,06,12,09,48,17.50
2010,06,12,09,49,17.50
2010,06,12,09,50,17.50
2010,06,12,09,51,17.50
2010,06,12,09,52,17.40
2010,06,12,09,53,17.40
2010,06,12,09,54,17.50
2010,06,12,09,55,17.50
2010,06,12,09,56,17.50
2010,06,12,09,57,17.40
2010,06,12,09,58,17.40
2010,06,12,09,59,17.50
2010,06,12,10,00,17.50
2010,06,12,10,01,17.60
2010,06,12,10,02,17.70
2010,06,12,10,03,17.80
2010,06,12,10,04,17.90
2010,06,12,10,05,17.90
2010,06,12,10,06,17.90
2010,06,12,10,07,17.90
2010,06,12,10,08,17.90
2010,06,12,10,09,18.00
2010,06,12,10,10,18.10
2010,06,12,10,11,18.10
2010,06,12,10,12,18.10
2010,06,12,10,13,18.10
2010,06,12,10,14,18.00
2010,06,12,10,15,18.10
2010,06,12,10,16,18.10
2010,06,12,10,17,18.10
2010,06,12,10,18,18.20
2010,06,12,10,19,18.30
2010,06,12,10,20,18.30
2010,06,12,10,21,18.40
2010,06,12,10,22,18.50
2010,06,12,10,23,18.60
2010,06,12,10,24,18.60
2010,06,12,10,25,18.70
2010,06,12,10,26,18.70
2010,06,12,10,27,18.80
2010,06,12,10,28,18.80
2010,06,12,10,29,18.90
2010,06,12,10,30,18.90
2010,06,12,10,31,18.90
2010,06,12,10,32,18.90
2010,06,12,10,33,18.90
2010,06,12,10,34,18.80
2010,06,12,10,35,18.70
2010,06,12,10,36,18.60
2010,06,12,10,37,18.60
2010,06,12,10,38,18.50
2010,06,12,10,39,18.30
2010,06,12,10,40,18.20
2010,06,12,10,41,18.10
2010,06,12,10,42,18.10
2010,06,12,10,43,18.10
2010,06,12,10,44,18.10
2010,06,12,10,45,18.10
2010,06,12,10,46,18.10
2010,06,12,10,47,18.20
2010,06,12,10,48,18.20
2010,06,12,10,49,18.20
2010,06,12,10,50,18.20
2010,06,12,10,51,18.20
2010,06,12,10,52,18.20
2010,06,12,10,53,18.20
2010,06,12,10,54,18.20
2010,06,12,10,55,18.30
2010,06,12,10,56,18.30
2010,06,12,10,57,18.30
2010,06,12,10,58,18.30
2010,06,12,10,59,18.40
2010,06,12,11,00,18.50
2010,06,12,11,01,18.40
2010,06,12,11,02,18.30
2010,06,12,11,03,18.30
2010,06,12,11,04,18.20
2010,06,12,11,05,18.20
2010,06,12,11,06,18.10
2010,06,12,11,07,18.10
2010,06,12,11,08,18.20
2010,06,12,11,09,18.20
2010,06,12,11,10,18.20
2010,06,12,11,11,18.20
2010,06,12,11,12,18.10
2010,06,12,11,13,18.10
2010,06,12,11,14,18.10
2010,06,12,11,15,18.10
2010,06,12,11,16,18.10
2010,06,12,11,17,18.10
2010,06,12,11,18,18.10
2010,06,12,11,19,18.20
2010,06,12,11,20,18.30
2010,06,12,11,21,18.30
2010,06,12,11,22,18.40
2010,06,12,11,23,18.50
2010,06,12,11,24,18.50
2010,06,12,11,25,18.50
2010,06,12,11,26,18.50
2010,06,12,11,27,18.50
2010,06,12,11,28,18.50
2010,06,12,11,29,18.60
2010,06,12,11,30,18.60
2010,06,12,11,31,18.70
2010,06,12,11,32,18.60
2010,06,12,11,33,18.60
2010,06,12,11,34,18.70
2010,06,12,11,35,18.70
2010,06,12,11,36,18.70
2010,06,12,11,37,18.70
2010,06,12,11,38,18.70
2010,06,12,11,39,18.60
2010,06,12,11,40,18.60
2010,06,12,11,41,18.60
2010,06,12,11,42,18.70
2010,06,12,11,43,18.80
2010,06,12,11,44,18.90
2010,06,12,11,45,18.90
2010,06,12,11,46,19.00
2010,06,12,11,47,19.10
2010,06,12,11,48,19.10
2010,06,12,11,49,19.10
2010,06,12,11,50,19.10
2010,06,12,11,51,19.10
2010,06,12,11,52,19.10
2010,06,12,11,53,19.00
2010,06,12,11,54,18.90
2010,06,12,11,55,18.90
2010,06,12,11,56,18.90
2010,06,12,11,57,18.90
2010,06,12,11,58,18.90
2010,06,12,11,59,18.90
2010,06,12,12,00,18.90
2010,06,12,12,01,18.90
2010,06,12,12,02,18.80
2010,06,12,12,03,18.70
2010,06,12,12,04,18.70
2010,06,12,12,05,18.80
2010,06,12,12,06,18.80
2010,06,12,12,07,18.80
2010,06,12,12,08,18.90
2010,06,12,12,09,18.90
2010,06,12,12,10,18.90
2010,06,12,12,11,18.90
2010,06,12,12,12,18.90
2010,06,12,12,13,18.90
2010,06,12,12,14,18.90
2010,06,12,12,15,18.90
2010,06,12,12,16,18.90
2010,06,12,12,17,18.90
2010,06,12,12,18,18.90
2010,06,12,12,19,18.90
2010,06,12,12,20,18.90
2010,06,12,12,21,18.90
2010,06,12,12,22,18.90
2010,06,12,12,23,18.90
2010,06,12,12,24,18.80
2010,06,12,12,25,18.80
2010,06,12,12,26,18.80
2010,06,12,12,27,18.80
2010,06,12,12,28,18.80
2010,06,12,12,29,18.80
2010,06,12,12,30,18.80
2010,06,12,12,31,18.60
2010,06,12,12,32,18.60
2010,06,12,12,33,18.50
2010,06,12,12,34,18.60
2010,06,12,12,35,18.60
2010,06,12,12,36,18.70
2010,06,12,12,37,18.80
2010,06,12,12,38,18.90
2010,06,12,12,39,18.90
2010,06,12,12,40,18.90
2010,06,12,12,41,18.90
2010,06,12,12,42,19.00
2010,06,12,12,43,19.10
2010,06,12,12,44,18.90
2010,06,12,12,45,18.90
2010,06,12,12,46,19.00
2010,06,12,12,47,19.10
2010,06,12,12,48,19.10
2010,06,12,12,49,19.10
2010,06,12,12,50,19.10
2010,06,12,12,51,19.20
2010,06,12,12,52,19.20
2010,06,12,12,53,19.30
2010,06,12,12,54,19.30
2010,06,12,12,55,19.40
2010,06,12,12,56,19.40
2010,06,12,12,57,19.40
2010,06,12,12,58,19.40
2010,06,12,12,59,19.40
2010,06,12,13,00,19.40
2010,06,12,13,01,19.40
2010,06,12,13,02,19.50
2010,06,12,13,03,19.70
2010,06,12,13,04,19.80
2010,06,12,13,05,19.80
2010,06,12,13,06,19.80
2010,06,12,13,07,19.80
2010,06,12,13,08,19.90
2010,06,12,13,09,19.90
2010,06,12,13,10,19.90
2010,06,12,13,11,19.90
2010,06,12,13,12,19.90
2010,06,12,13,13,19.90
2010,06,12,13,14,19.90
2010,06,12,13,15,19.70
2010,06,12,13,16,19.70
2010,06,12,13,17,19.80
2010,06,12,13,18,19.80
2010,06,12,13,19,19.80
2010,06,12,13,20,19.90
2010,06,12,13,21,20.00
2010,06,12,13,22,20.00
2010,06,12,13,23,19.90
2010,06,12,13,24,19.90
2010,06,12,13,25,20.10
2010,06,12,13,26,20.20
2010,06,12,13,27,20.20
2010,06,12,13,28,20.20
2010,06,12,13,29,20.10
2010,06,12,13,30,20.10
2010,06,12,13,31,20.20
2010,06,12,13,32,20.10
2010,06,12,13,33,20.00
2010,06,12,13,34,19.90
2010,06,12,13,35,19.90
2010,06,12,13,36,19.90
2010,06,12,13,37,19.90
2010,06,12,13,38,19.90
2010,06,12,13,39,19.80
2010,06,12,13,40,19.80
2010,06,12,13,41,19.90
2010,06,12,13,42,19.90
2010,06,12,13,43,19.90
2010,06,12,13,44,19.90
2010,06,12,13,45,19.90
2010,06,12,13,46,19.90
2010,06,12,13,47,19.90
2010,06,12,13,48,20.00
2010,06,12,13,49,20.10
2010,06,12,13,50,20.10
2010,06,12,13,51,20.10
2010,06,12,13,52,20.00
2010,06,12,13,53,19.90
2010,06,12,13,54,19.70
2010,06,12,13,55,19.70
2010,06,12,13,56,19.70
2010,06,12,13,57,19.80
2010,06,12,13,58,19.80
2010,06,12,13,59,19.90
2010,06,12,14,00,19.90
2010,06,12,14,01,19.90
2010,06,12,14,02,20.00
2010,06,12,14,03,20.10
2010,06,12,14,04,20.10
2010,06,12,14,05,20.10
2010,06,12,14,06,20.20
2010,06,12,14,07,20.10
2010,06,12,14,08,20.00
2010,06,12,14,09,19.90
2010,06,12,14,10,19.90
2010,06,12,14,11,19.90
2010,06,12,14,12,19.90
2010,06,12,14,13,20.00
2010,06,12,14,14,20.10
2010,06,12,14,15,20.20
2010,06,12,14,16,20.20
2010,06,12,14,17,20.20
2010,06,12,14,18,20.30
2010,06,12,14,19,20.30
2010,06,12,14,20,20.20
2010,06,12,14,21,20.20
2010,06,12,14,22,20.20
2010,06,12,14,23,20.20
2010,06,12,14,24,20.20
2010,06,12,14,25,20.20
2010,06,12,14,26,20.10
2010,06,12,14,27,20.00
2010,06,12,14,28,19.90
2010,06,12,14,29,19.90
2010,06,12,14,30,19.90
2010,06,12,14,31,20.00
2010,06,12,14,32,20.00
2010,06,12,14,33,19.90
2010,06,12,14,34,20.00
2010,06,12,14,35,20.00
2010,06,12,14,36,19.90
2010,06,12,14,37,19.90
2010,06,12,14,38,19.90
2010,06,12,14,39,20.00
2010,06,12,14,40,20.20
2010,06,12,14,41,20.20
2010,06,12,14,42,20.20
2010,06,12,14,43,20.20
2010,06,12,14,44,20.20
2010,06,12,14,45,20.30
2010,06,12,14,46,20.30
2010,06,12,14,47,20.30
2010,06,12,14,48,20.20
2010,06,12,14,49,20.20
2010,06,12,14,50,20.20
2010,06,12,14,51,20.20
2010,06,12,14,52,20.20
2010,06,12,14,53,20.20
2010,06,12,14,54,20.20
2010,06,12,14,55,20.20
2010,06,12,14,56,20.30
2010,06,12,14,57,20.50
2010,06,12,14,58,20.50
2010,06,12,14,59,20.60
2010,06,12,15,00,20.60
2010,06,12,15,01,20.50
2010,06,12,15,02,20.40
2010,06,12,15,03,20.50
2010,06,12,15,04,20.50
2010,06,12,15,05,20.50
2010,06,12,15,06,20.60
2010,06,12,15,07,20.60
2010,06,12,15,08,20.70
2010,06,12,15,09,20.70
2010,06,12,15,10,20.80
2010,06,12,15,11,20.80
2010,06,12,15,12,20.90
2010,06,12,15,13,21.00
2010,06,12,15,14,21.00
2010,06,12,15,15,21.10
2010,06,12,15,16,21.30
2010,06,12,15,17,21.20
2010,06,12,15,18,21.10
2010,06,12,15,19,21.10
2010,06,12,15,20,21.10
2010,06,12,15,21,21.20
2010,06,12,15,22,21.30
2010,06,12,15,23,21.20
2010,06,12,15,24,21.10
2010,06,12,15,25,21.10
2010,06,12,15,26,21.20
2010,06,12,15,27,21.20
2010,06,12,15,28,21.30
2010,06,12,15,29,21.30
2010,06,12,15,30,21.30
2010,06,12,15,31,21.40
2010,06,12,15,32,21.50
2010,06,12,15,33,21.60
2010,06,12,15,34,21.60
2010,06,12,15,35,21.60
2010,06,12,15,36,21.60
2010,06,12,15,37,21.60
2010,06,12,15,38,21.50
2010,06,12,15,39,21.40
2010,06,12,15,40,21.30
2010,06,12,15,41,21.20
2010,06,12,15,42,21.10
2010,06,12,15,43,21.10
2010,06,12,15,44,21.20
2010,06,12,15,45,21.30
2010,06,12,15,46,21.40
2010,06,12,15,47,21.60
2010,06,12,15,48,21.60
2010,06,12,15,49,21.60
2010,06,12,15,50,21.60
2010,06,12,15,51,21.60
2010,06,12,15,52,21.60
2010,06,12,15,53,21.50
2010,06,12,15,54,21.30
2010,06,12,15,55,21.20
2010,06,12,15,56,21.20
2010,06,12,15,57,21.30
2010,06,12,15,58,21.30
2010,06,12,15,59,21.30
2010,06,12,16,00,21.30
2010,06,12,16,01,21.30
2010,06,12,16,02,21.30
2010,06,12,16,03,21.30
2010,06,12,16,04,21.30
2010,06,12,16,05,21.30
2010,06,12,16,06,21.30
2010,06,12,16,07,21.30
2010,06,12,16,08,21.20
2010,06,12,16,09,21.20
2010,06,12,16,10,21.20
2010,06,12,16,11,21.10
2010,06,12,16,12,21.10
2010,06,12,16,13,21.00
2010,06,12,16,14,21.00
2010,06,12,16,15,21.10
2010,06,12,16,16,21.10
2010,06,12,16,17,21.20
2010,06,12,16,18,21.30
2010,06,12,16,19,21.20
2010,06,12,16,20,21.10
2010,06,12,16,21,21.10
2010,06,12,16,22,21.10
2010,06,12,16,23,21.20
2010,06,12,16,24,21.30
2010,06,12,16,25,21.30
2010,06,12,16,26,21.40
2010,06,12,16,27,21.50
2010,06,12,16,28,21.60
2010,06,12,16,29,21.80
2010,06,12,16,30,21.90
2010,06,12,16,31,22.00
2010,06,12,16,32,22.20
2010,06,12,16,33,22.20
2010,06,12,16,34,22.30
2010,06,12,16,35,22.40
2010,06,12,16,36,22.40
2010,06,12,16,37,22.40
2010,06,12,16,38,22.30
2010,06,12,16,39,22.10
2010,06,12,16,40,21.90
2010,06,12,16,41,21.80
2010,06,12,16,42,21.70
2010,06,12,16,43,21.70
2010,06,12,16,44,21.60
2010,06,12,16,45,21.50
2010,06,12,16,46,21.40
2010,06,12,16,47,21.40
2010,06,12,16,48,21.40
2010,06,12,16,49,21.40
2010,06,12,16,50,21.40
2010,06,12,16,51,21.40
2010,06,12,16,52,21.40
2010,06,12,16,53,21.40
2010,06,12,16,54,21.30
2010,06,12,16,55,21.20
2010,06,12,16,56,21.10
2010,06,12,16,57,21.00
2010,06,12,16,58,21.00
2010,06,12,16,59,21.00
2010,06,12,17,00,21.10
2010,06,12,17,01,21.30
2010,06,12,17,02,21.30
2010,06,12,17,03,21.40
2010,06,12,17,04,21.40
2010,06,12,17,05,21.40
2010,06,12,17,06,21.40
2010,06,12,17,07,21.40
2010,06,12,17,08,21.30
2010,06,12,17,09,21.20
2010,06,12,17,10,21.10
2010,06,12,17,11,21.00
2010,06,12,17,12,20.90
2010,06,12,17,13,20.90
2010,06,12,17,14,20.80
2010,06,12,17,15,20.80
2010,06,12,17,16,20.90
2010,06,12,17,17,20.90
2010,06,12,17,18,20.70
2010,06,12,17,19,20.60
2010,06,12,17,20,20.60
2010,06,12,17,21,20.60
2010,06,12,17,22,20.50
2010,06,12,17,23,20.40
2010,06,12,17,24,20.30
2010,06,12,17,25,20.20
2010,06,12,17,26,20.10
2010,06,12,17,27,19.90
2010,06,12,17,28,19.90
2010,06,12,17,29,19.80
2010,06,12,17,30,19.70
2010,06,12,17,31,19.60
2010,06,12,17,32,19.60